This is the latest recevied weather packets stored in our database for station/object W1HS. If no packets are shown the sender has not sent any weather packets the latest 10 day(s).
| Time | Temp. | Humidity | Pressure | Rain* | Wind** | Luminosity | Snow |
|---|---|---|---|---|---|---|---|
| 1777685898 | 8.89° C | 49% | 991.5 hPa | 0 mm | - | 0 W/m² | - |
| 1777685298 | 9.44° C | 50% | 991.4 hPa | 0 mm | - | 0 W/m² | - |
| 1777684700 | 9.44° C | 47% | 991.4 hPa | 0 mm | - | 0 W/m² | - |
| 1777684098 | 10° C | 46% | 991.2 hPa | 0 mm | - | 0 W/m² | - |
| 1777683498 | 10° C | 46% | 991.1 hPa | 0 mm | - | 0 W/m² | - |
| 1777682898 | 10° C | 45% | 991 hPa | 0 mm | - | 0 W/m² | - |
| 1777682298 | 10° C | 45% | 990.9 hPa | 0 mm | - | 0 W/m² | - |
| 1777681698 | 10.56° C | 46% | 990.8 hPa | 0 mm | - | 0 W/m² | - |
| 1777681190 | 10.56° C | 45% | 990.8 hPa | 0 mm | - | 0 W/m² | - |
| 1777680798 | 10.56° C | 42% | 990.5 hPa | 0 mm | - | 0 W/m² | - |
| 1777680199 | 10.56° C | 43% | 990.5 hPa | 0 mm | - | 0 W/m² | - |
| 1777679598 | 11.11° C | 43% | 990.4 hPa | 0 mm | - | 0 W/m² | - |
| 1777678998 | 11.67° C | 42% | 990.3 hPa | 0 mm | - | 7 W/m² | - |
| 1777678398 | 12.22° C | 40% | 990.2 hPa | 0 mm | - | 12 W/m² | - |
| 1777677798 | 12.78° C | 38% | 990.1 hPa | 0 mm | - | 16 W/m² | - |
| 1777677198 | 12.78° C | 39% | 989.8 hPa | 0 mm | - | 37 W/m² | - |
| 1777676598 | 12.78° C | 40% | 989.8 hPa | 0 mm | - | 33 W/m² | - |
| 1777675999 | 13.33° C | 38% | 989.8 hPa | 0 mm | - | 46 W/m² | - |
| 1777675398 | 13.33° C | 36% | 989.8 hPa | 0 mm | - | 81 W/m² | - |
| 1777674798 | 13.89° C | 38% | 989.8 hPa | 0 mm | - | 181 W/m² | - |
| 1777674201 | 13.89° C | 36% | 989.7 hPa | 0 mm | - | 255 W/m² | - |
| 1777673598 | 13.89° C | 37% | 989.8 hPa | 0 mm | - | 304 W/m² | - |
| 1777673000 | 13.33° C | 35% | 989.8 hPa | 0 mm | - | 373 W/m² | - |
| 1777672398 | 12.78° C | 42% | 989.8 hPa | 0 mm | - | 260 W/m² | - |
| 1777671798 | 13.33° C | 39% | 990 hPa | 0 mm | - | 113 W/m² | - |
* Rain latest hour (hover to see other rain measurements)
** Current wind speed in m/s (hover to see current wind gust speed)